Westfield, MA

6:47 PM EDT on March 29, 2017 (GMT -0400)
Barnes Municipal

Weather History for KBAF - June, 2014

Change the Weather History Date:

Sunday, June 8, 2014

  Actual Average Record
Temperature  
Mean Temperature 70 °F -  
Max Temperature 87 °F 72 °F 93 °F (2005)
Min Temperature 55 °F 51 °F 39 °F (1977)
Cooling Degree Days 6    
Growing Degree Days 20 (Base 50)    
Moisture  
Dew Point 54 °F    
Average Humidity 59    
Maximum Humidity 93    
Minimum Humidity 31    
Precipitation  
Precipitation 0.00 in - - ()
Sea Level Pressure  
Sea Level Pressure 29.91 in    
Wind  
Wind Speed 3 mph (South)    
Max Wind Speed 12 mph    
Max Gust Speed -    
Visibility 10 miles    
Events      
Averages and records for this station are not official NWS values.
T = Trace of Precipitation, MM = Missing Value Source: NWS Daily Summary

Daily Weather History Graph

Daily Weather History Graph

Search for Another Location

Airport or City:

Trip Planner

Search our weather history database for the weather conditions in past years. The results will help you decide how hot, cold, wet, or windy it might be!

Date:

Astronomy

Jun. 08, 2014 Rise Set
Actual Time 5:14 AM EDT 8:25 PM EDT
Civil Twilight 4:40 AM EDT 8:59 PM EDT
Nautical Twilight 3:56 AM EDT 9:43 PM EDT
Astronomical Twilight 3:03 AM EDT 10:36 PM EDT
Moon 3:36 PM EDT (6/8) 2:11 AM EDT (6/8)
Length of Visible Light 16h 18m
Length of Day
15h 10m
Waxing Gibbous, 77% of the Moon is Illuminated
Jun 8
Waxing Gibbous
Jun 13
Full
Jun 19
Last Quarter
Jun 27
New
Jul 5
First Quarter

Hourly Weather History & Observations

Time (EDT) Temp. Heat Index Dew Point Humidity Pressure Visibility Wind Dir Wind Speed Gust Speed Precip Events Conditions
12:53 AM 57.9 °F - 55.0 °F 90% 29.94 in 10.0 mi Calm Calm - N/A   Clear
1:53 AM 57.9 °F - 55.0 °F 90% 29.95 in 10.0 mi Calm Calm - N/A   Clear
2:53 AM 55.9 °F - 54.0 °F 93% 29.94 in 10.0 mi Calm Calm - N/A   Clear
3:53 AM 55.0 °F - 53.1 °F 93% 29.94 in 10.0 mi Calm Calm - N/A   Clear
4:53 AM 55.0 °F - 52.0 °F 89% 29.94 in 10.0 mi Calm Calm - N/A   Clear
5:53 AM 55.0 °F - 52.0 °F 89% 29.95 in 10.0 mi NNW 3.5 mph - N/A   Clear
6:53 AM 60.1 °F - 55.0 °F 83% 29.96 in 10.0 mi NE 3.5 mph - N/A   Clear
7:53 AM 66.9 °F - 57.0 °F 70% 29.96 in 10.0 mi NNE 4.6 mph - N/A   Clear
8:53 AM 71.1 °F - 57.0 °F 61% 29.96 in 10.0 mi WNW 3.5 mph - N/A   Clear
9:53 AM 73.9 °F - 55.9 °F 53% 29.95 in 10.0 mi Calm Calm - N/A   Clear
10:53 AM 77.0 °F - 55.9 °F 48% 29.94 in 10.0 mi Calm Calm - N/A   Clear
11:53 AM 82.0 °F 82.0 °F 57.9 °F 44% 29.94 in 10.0 mi SSW 5.8 mph - N/A   Partly Cloudy
12:53 PM 84.0 °F 82.6 °F 54.0 °F 35% 29.92 in 10.0 mi SW 5.8 mph - N/A   Clear
1:53 PM 84.0 °F 82.9 °F 55.0 °F 37% 29.90 in 10.0 mi SE 8.1 mph - N/A   Clear
2:53 PM 86.0 °F 84.2 °F 54.0 °F 33% 29.88 in 10.0 mi South 8.1 mph - N/A   Scattered Clouds
3:53 PM 86.0 °F 84.0 °F 53.1 °F 32% 29.86 in 10.0 mi SSW 8.1 mph - N/A   Partly Cloudy
4:53 PM 86.0 °F - 52.0 °F 31% 29.86 in 10.0 mi South 11.5 mph - N/A   Partly Cloudy
5:53 PM 84.0 °F - 52.0 °F 33% 29.85 in 10.0 mi SSW 11.5 mph - N/A   Clear
6:53 PM 80.1 °F 80.1 °F 55.0 °F 42% 29.85 in 10.0 mi SSE 6.9 mph - N/A   Clear
7:53 PM 75.9 °F - 55.9 °F 50% 29.86 in 10.0 mi South 5.8 mph - N/A   Clear
8:53 PM 75.0 °F - 54.0 °F 48% 29.88 in 10.0 mi South 8.1 mph - N/A   Clear
9:53 PM 71.1 °F - 54.0 °F 55% 29.90 in 10.0 mi South 5.8 mph - N/A   Clear
10:53 PM 68.0 °F - 55.0 °F 63% 29.90 in 10.0 mi South 5.8 mph - N/A   Clear
11:53 PM 66.9 °F - 54.0 °F 63% 29.90 in 10.0 mi South 4.6 mph - N/A   Clear